Home > Weather > Lillehammer > Past weeks

Flag for Norway Weather for the Past 2 Weeks in Lillehammer, Norway

Now
32 °F

Chilly.


Feels Like: 25 °F
Forecast: 25 / 30 °F
Wind: 7 mph from North

Location: Lillehammer-Saetherengen

Current Time: Feb 10, 2016 at 11:47:32 PM

Latest Report: Feb 10, 2016 at 10:00 PM


Visibility: N/A

Pressure: 29.26 "Hg

Humidity: 69%

Dew point: 23 °F

Location of LillehammerLocation

Historic Weather in Lillehammer — Graph

°F

Lillehammer Temperature Yesterday

Maximum temperature yesterday: 35 °F (at 2:00 AM)
Minimum temperature yesterday: 31 °F (at 10:00 PM)
Average temperature yesterday: 34 °F

High & Low Weather Summary for the Past Weeks

 TemperatureHumidityPressure
High41 °F (Jan 29, 4:00 PM)98% (Jan 28, 1:00 AM)29.90 "Hg (Jan 28, 1:00 AM)
Low12 °F (Feb 1, 7:00 AM)50% (Jan 30, 4:00 PM)28.73 "Hg (Jan 29, 4:00 PM)
Average29 °F87%29.20 "Hg
* Reported Jan 26 9:00 PM — Feb 10 9:00 PM, Lillehammer, Weather by CustomWeather, © 2016

Note: Actual official high and low records may vary slightly from our data, if they occured in-between our weather recording intervals... More about our weather records

Advertising

Lillehammer Weather History for the Previous 24 Hours

 ConditionsComfort  
Time TempWeatherWind HumidityBarometerVisibility
9:00 PM
Wed, Feb 10
32 °FChilly.5 mph72%29.23 "HgN/A
8:00 PM32 °FChilly.3 mph75%29.21 "HgN/A
7:00 PM32 °FChilly.3 mph80%29.21 "HgN/A
6:00 PM30 °FChilly.3 mph83%29.18 "HgN/A
5:00 PM30 °FChilly.2 mph83%29.18 "HgN/A
4:00 PM31 °FChilly.3 mph82%29.18 "HgN/A
3:00 PM30 °FChilly.3 mph82%29.15 "HgN/A
2:00 PM30 °FChilly.3 mph82%29.15 "HgN/A
1:00 PM30 °FChilly.5 mph83%29.15 "HgN/A
12:00 PM29 °FChilly.5 mph86%29.12 "HgN/A
11:00 AM29 °FChilly.5 mph87%29.12 "HgN/A
10:00 AM29 °FChilly.3 mph88%29.12 "HgN/A
9:00 AM29 °FChilly.2 mph90%29.09 "HgN/A
8:00 AM29 °FChilly.2 mph90%29.09 "HgN/A
7:00 AM29 °FChilly.5 mph90%29.06 "HgN/A
6:00 AM29 °FChilly.5 mph92%29.03 "HgN/A
5:00 AM30 °FChilly.3 mph94%29.03 "HgN/A
Weather by CustomWeather, © 2016

See weather overviewHow to use our weather pages